Wetbulb
76.74 76.88 77.44 77.19 76.94 77.47 77.66 77.40 76.79 76.88 76.40 76.51 75.47 76.70 75.50 75.78 74.33 74.09 73.93 75.01 74.66 74.60 74.86 74.88 74.66 74.56 74.71 74.65 74.40 74.06 73.87 73.66 73.50 72.64 73.26 73.67 73.49 73.40 72.98 71.99 72.37 72.36 71.80
76.58 76.50 77.04 76.80 76.93 76.93 77.42 77.29 77.74 76.87 76.41 75.46 74.81 76.61 76.13 75.52 75.81 74.50 74.82 74.83 74.22 74.67 74.64 74.27 74.62 74.64 74.41 73.96 74.32 74.35 74.19 73.55 73.58 72.93 73.62 73.67 73.49 73.03 72.51 72.23 72.25 71.97 72.29
76.64 77.31 76.75 76.30 76.29 77.17 77.21 77.16 77.53 76.91 73.45 70.09 70.11 75.50 76.10 76.19 75.72 72.98 75.12 75.53 74.34 74.54 74.39 74.30 74.70 75.06 74.97 74.83 74.35 74.55 74.85 74.48 74.05 73.71 74.36 74.35 73.79 73.75 73.22 72.65 73.03 73.44 73.47
77.23 77.21 76.30 76.30 77.27 76.98 77.93 77.90 76.28 75.20 69.55 68.56 70.94 71.25 72.23 74.96 75.60 75.27 76.05 75.59 75.25 74.43 74.43 75.26 75.04 74.51 73.91 74.69 74.63 74.58 73.86 74.16 75.13 75.04 75.04 74.21 74.39 73.99 73.92 73.80 73.77 73.52 73.15
77.19 76.89 76.49 76.45 77.33 76.12 76.55 75.40 75.76 74.06 70.47 70.03 69.62 71.38 72.22 72.83 73.35 71.88 74.64 75.18 75.02 74.73 74.60 74.46 74.87 75.06 73.61 73.69 74.27 74.63 74.61 74.61 74.63 74.47 74.40 74.62 74.60 74.65 74.48 74.58 74.05 73.75 73.53
77.70 77.24 74.90 75.40 76.77 75.98 74.51 73.56 75.29 73.15 71.65 71.18 68.79 70.10 71.28 71.95 73.72 73.08 73.23 74.15 74.68 74.39 75.04 75.30 74.68 74.52 74.12 72.77 73.04 73.69 74.56 74.86 74.59 74.33 74.28 74.38 74.27 74.60 74.25 74.15 74.29 74.07 74.20
77.55 77.64 75.43 76.30 75.46 77.45 76.30 76.63 74.91 73.09 71.26 71.46 69.66 69.39 70.46 71.44 71.67 72.36 73.90 73.88 73.88 74.24 75.18 75.86 76.16 76.06 74.81 73.67 73.04 72.58 73.24 73.60 74.14 73.67 73.71 73.75 73.98 73.75 73.95 73.57 73.44 74.24 74.16
77.66 77.39 76.52 76.29 76.65 75.67 76.16 75.65 73.88 71.40 70.09 70.73 68.46 68.61 65.00 67.90 70.84 71.21 73.26 73.26 72.95 73.58 73.16 73.17 73.67 74.69 75.64 75.93 74.55 73.69 73.92 73.73 73.34 73.39 72.77 72.36 72.22 71.77 72.46 72.90 72.92 73.07 73.05
77.55 77.93 75.96 75.84 76.92 76.52 74.92 75.57 73.94 72.05 68.58 70.61 69.47 68.46 64.94 64.10 67.36 70.82 70.62 73.20 73.41 73.02 71.68 71.73 72.87 73.97 74.22 72.97 71.18 71.94 72.46 72.75 72.75 72.20 70.98 69.70 69.09 69.13 69.78 70.12 70.22 70.50 70.74
77.18 77.52 77.63 77.26 77.15 76.02 75.98 75.33 73.81 72.18 70.61 68.30 69.83 70.24 69.98 69.64 64.69 64.52 68.89 70.34 72.06 71.74 71.75 71.31 71.91 73.26 72.40 70.58 66.73 69.11 69.02 69.13 68.33 67.19 66.77 66.35 66.27 66.40 66.70 67.51 68.02 68.39 68.54
77.22 77.14 77.61 77.62 77.18 76.29 76.23 75.51 73.55 71.66 70.45 69.57 68.86 68.47 69.46 69.13 70.01 67.47 64.45 66.86 69.78 70.61 71.36 70.62 70.88 72.02 71.64 71.31 67.33 67.07 66.86 67.69 67.44 66.18 65.62 65.07 64.86 65.00 65.18 65.35 65.58 66.03 66.40
75.73 77.10 77.33 77.44 77.41 76.91 76.11 75.39 74.62 73.10 71.62 70.05 69.41 70.07 68.16 67.24 66.63 67.08 66.22 67.14 66.89 68.52 69.31 70.26 69.45 69.91 71.59 70.76 68.98 67.12 67.79 67.85 67.08 66.99 66.71 65.20 65.11 65.41 66.37 67.12 67.15 66.74 66.16
74.34 76.33 77.28 77.08 76.83 77.02 76.52 75.97 74.33 73.14 72.06 69.90 70.78 69.60 69.91 68.86 69.63 68.40 67.18 67.21 66.04 68.18 68.21 69.49 69.65 69.66 69.63 71.39 70.71 68.58 68.70 67.93 67.61 67.03 67.00 66.77 66.09 66.03 66.43 66.95 67.72 68.14 68.12
74.93 77.32 76.85 77.27 77.20 77.03 76.71 75.74 74.00 72.79 72.49 71.04 70.87 70.71 69.80 69.60 69.11 68.80 67.54 66.21 64.23 64.94 66.42 67.14 70.60 69.69 69.53 69.56 71.46 69.27 69.50 67.01 67.47 67.03 66.36 66.51 66.33 66.76 67.10 67.45 67.83 67.75 68.05
75.44 76.18 76.63 76.71 77.15 77.02 76.62 75.66 73.92 72.73 71.45 71.31 71.19 70.75 69.83 69.47 69.41 69.29 68.22 67.83 65.54 62.16 63.16 66.54 66.37 69.85 71.40 70.83 70.04 69.82 70.54 68.90 67.18 66.62 66.05 65.93 65.84 66.16 66.79 67.42 67.60 67.76 67.80
76.58 76.10 76.60 77.13 77.13 76.76 76.38 75.54 74.47 73.83 71.68 70.63 70.45 70.48 70.09 69.51 69.50 69.20 68.80 68.25 67.39 65.69 62.80 66.94 66.73 69.47 71.11 70.61 70.12 69.95 70.30 68.17 67.00 66.35 65.57 65.17 65.37 65.85 66.27 66.46 66.51 66.65 66.74
77.06 76.86 76.79 76.78 76.52 76.17 76.17 75.13 74.62 73.65 71.76 71.69 70.80 70.38 70.03 70.64 68.48 68.97 68.92 68.50 67.43 66.79 64.51 66.48 67.67 69.12 69.56 70.12 70.08 71.02 70.99 70.99 69.65 66.37 65.41 64.75 64.49 64.64 65.44 65.70 65.68 65.53 65.50
76.93 76.92 76.96 76.53 76.33 76.13 75.94 74.92 73.93 73.27 72.08 71.20 70.88 70.27 69.54 69.01 69.46 70.04 68.59 69.49 68.38 68.57 66.43 66.40 67.76 67.51 68.66 70.35 70.44 70.13 69.28 67.97 68.73 67.31 65.19 64.77 64.39 63.93 63.73 63.62 63.20 62.94 62.42
76.47 76.31 76.53 76.33 75.83 75.81 75.46 75.17 74.58 73.60 72.47 72.05 71.51 70.77 70.13 69.63 68.83 68.99 68.89 68.22 68.38 68.65 68.13 66.49 65.88 67.90 68.10 68.49 68.57 69.14 68.65 68.47 68.22 66.17 62.80 63.05 63.32 63.10 62.64 61.31 60.79 59.59 59.00
75.94 76.17 76.24 76.43 76.60 76.29 75.59 75.01 74.42 73.97 73.06 72.55 72.11 71.74 71.11 70.22 69.63 69.51 68.73 68.93 68.92 68.06 68.28 66.93 66.57 66.45 67.20 67.77 67.30 65.90 65.88 67.37 66.77 67.10 65.86 64.37 64.19 64.23 62.69 61.03 60.57 60.21 58.44
75.83 76.16 75.70 75.80 76.28 75.97 74.97 75.22 74.56 74.05 73.39 72.58 72.41 72.01 71.89 70.87 68.32 68.28 67.96 68.97 69.68 68.11 67.37 66.56 66.05 65.62 65.55 64.15 64.99 66.94 65.52 65.85 65.89 65.42 65.21 66.18 66.11 66.17 66.22 62.37 64.00 62.51 60.03
76.00 76.12 75.50 75.37 75.30 74.73 68.58 67.77 73.16 74.12 73.60 73.48 72.94 72.49 72.41 68.96 67.65 65.17 65.41 66.34 69.20 69.46 68.78 66.75 65.81 65.29 66.63 66.17 65.89 65.95 64.19 63.64 61.51 66.32 65.05 64.22 66.21 65.74 66.21 66.19 63.17 60.88 59.20
76.41 75.81 75.79 75.37 75.02 75.44 64.86 65.19 67.46 75.11 74.53 74.14 74.22 73.84 71.96 70.45 68.53 68.43 64.69 64.04 64.55 64.88 66.89 70.14 67.83 67.66 67.44 67.69 67.49 62.16 65.15 63.52 63.69 65.92 65.15 62.98 65.65 64.14 64.66 64.41 60.95 59.80 58.42
75.34 75.84 75.75 75.92 75.34 75.08 63.72 63.05 66.07 73.81 74.96 75.13 74.54 73.90 72.75 71.20 69.98 69.20 69.17 69.04 68.34 68.68 68.04 68.42 69.78 70.06 69.86 67.10 67.48 67.47 66.77 65.74 65.61 65.13 65.83 60.86 63.33 62.10 62.98 62.69 60.64 59.80 58.24
74.73 74.96 76.00 76.14 75.58 75.53 62.37 61.34 65.08 72.77 74.12 74.71 74.05 73.72 72.81 71.74 67.11 63.62 70.01 70.07 69.55 69.70 65.24 63.13 63.87 62.60 61.78 62.23 64.45 65.19 63.84 61.25 60.65 62.40 64.32 61.01 60.51 60.12 60.44 60.50 60.56 58.92 56.35
74.83 74.32 75.09 76.00 72.41 75.98 62.56 59.82 64.55 72.93 73.15 73.25 73.28 73.46 64.45 68.46 61.75 60.46 67.29 68.92 68.84 68.85 68.39 67.22 66.89 63.33 63.39 64.42 61.74 66.31 65.42 62.56 61.80 59.23 62.70 58.46 58.50 58.47 55.60 58.21 58.64 57.78 57.38
MSLP
1019.23 1019.14 1019.15 1019.10 1019.23 1019.18 1019.08 1019.26 1019.22 1019.28 1019.19 1019.26 1019.55 1019.39 1019.46 1019.71 1019.86 1019.90 1020.32 1020.76 1020.97 1021.11 1021.16 1021.28 1021.39 1021.56 1021.79 1022.00 1022.15 1022.45 1022.60 1022.76 1022.93 1022.99 1023.03 1023.07 1023.16 1023.28 1023.42 1023.48 1023.52 1023.64 1023.73
1019.16 1018.97 1018.92 1018.90 1019.03 1019.13 1019.19 1019.27 1019.34 1019.30 1019.27 1019.34 1019.34 1019.36 1019.50 1019.66 1019.88 1020.04 1019.93 1020.26 1020.77 1020.97 1021.00 1021.12 1021.32 1021.45 1021.66 1021.89 1022.13 1022.40 1022.56 1022.64 1022.80 1022.93 1023.02 1023.08 1023.17 1023.27 1023.34 1023.45 1023.47 1023.49 1023.58
1019.08 1019.18 1018.91 1018.91 1018.93 1019.21 1019.24 1019.24 1019.25 1019.46 1019.34 1019.57 1019.83 1019.46 1019.48 1019.66 1019.71 1020.24 1019.86 1019.92 1020.15 1020.66 1020.89 1021.01 1021.12 1021.25 1021.48 1021.68 1021.89 1022.17 1022.36 1022.42 1022.63 1022.80 1022.85 1022.96 1023.08 1023.23 1023.29 1023.38 1023.40 1023.42 1023.46
1018.90 1018.92 1018.79 1018.74 1018.96 1019.24 1019.13 1019.19 1019.16 1019.30 1019.80 1019.95 1019.90 1019.68 1019.63 1019.61 1019.65 1019.72 1019.78 1019.91 1020.03 1019.99 1020.59 1020.80 1021.01 1021.19 1021.32 1021.50 1021.72 1021.93 1022.14 1022.26 1022.41 1022.50 1022.66 1022.82 1022.82 1022.97 1023.11 1023.21 1023.30 1023.33 1023.33
1018.54 1018.69 1018.52 1018.59 1019.06 1019.04 1019.12 1019.49 1019.45 1019.64 1019.81 1019.98 1019.87 1019.80 1019.67 1019.58 1019.50 1019.43 1019.64 1019.88 1020.07 1020.11 1020.08 1020.56 1020.81 1020.95 1021.12 1021.22 1021.45 1021.52 1021.80 1021.89 1022.00 1022.12 1022.15 1022.40 1022.56 1022.69 1022.91 1023.05 1023.10 1023.16 1023.19
1018.10 1018.41 1018.76 1018.83 1018.86 1018.85 1019.56 1019.61 1019.66 1019.80 1019.89 1019.88 1019.74 1019.89 1019.88 1019.77 1019.59 1019.56 1019.55 1019.51 1019.79 1019.88 1019.98 1020.36 1020.40 1020.52 1021.04 1021.13 1021.20 1021.32 1021.47 1021.60 1021.65 1021.91 1022.06 1022.18 1022.37 1022.41 1022.50 1022.65 1022.75 1022.77 1022.80
1017.80 1018.04 1018.43 1018.51 1018.86 1018.92 1019.08 1019.30 1019.57 1019.70 1019.85 1020.13 1019.90 1019.89 1019.90 1019.91 1019.82 1019.83 1019.66 1019.62 1019.87 1020.00 1020.22 1020.28 1020.25 1020.56 1020.58 1021.09 1021.21 1021.27 1021.28 1021.27 1021.41 1021.58 1021.69 1021.84 1021.85 1022.00 1022.12 1022.16 1022.33 1022.41 1022.50
1017.37 1017.55 1017.88 1018.27 1018.52 1018.64 1018.99 1019.31 1019.65 1019.66 1019.92 1020.15 1019.80 1019.76 1019.43 1019.71 1019.82 1020.00 1020.07 1020.08 1020.19 1020.10 1020.25 1020.47 1020.62 1020.80 1020.79 1020.97 1021.22 1021.47 1021.50 1021.38 1021.39 1021.43 1021.65 1021.84 1021.99 1021.99 1021.90 1021.80 1021.93 1022.00 1022.17
1017.02 1017.22 1017.66 1017.98 1018.21 1018.46 1018.65 1019.07 1019.41 1019.64 1019.55 1020.07 1020.18 1019.75 1019.51 1019.12 1019.65 1020.07 1020.33 1020.35 1020.54 1020.44 1020.44 1020.61 1020.76 1020.99 1021.09 1021.15 1021.31 1021.54 1021.79 1021.82 1021.82 1021.85 1021.92 1022.01 1022.03 1022.05 1022.06 1022.05 1022.04 1022.06 1022.16
1016.69 1016.86 1017.19 1017.61 1017.94 1018.00 1018.46 1018.70 1019.07 1019.33 1019.59 1019.55 1020.16 1020.27 1020.14 1019.84 1019.34 1019.45 1019.98 1020.21 1020.43 1020.51 1020.74 1020.65 1020.73 1020.92 1021.07 1021.09 1021.65 1021.78 1021.86 1021.98 1022.11 1022.14 1022.15 1022.11 1022.12 1022.08 1022.07 1022.03 1022.02 1022.09 1022.12
1016.42 1016.51 1016.90 1017.27 1017.56 1017.72 1018.13 1018.43 1018.86 1019.30 1019.43 1019.45 1019.54 1019.86 1020.17 1020.12 1020.07 1019.54 1019.24 1019.75 1020.13 1020.25 1020.34 1020.50 1020.61 1020.72 1021.12 1021.22 1021.31 1021.62 1021.82 1021.88 1021.97 1022.16 1022.29 1022.33 1022.33 1022.24 1022.08 1021.98 1021.93 1021.93 1021.99
1015.82 1016.12 1016.52 1016.89 1017.11 1017.38 1017.82 1018.13 1018.55 1019.05 1019.31 1019.46 1019.50 1019.58 1019.46 1019.42 1019.53 1019.58 1019.48 1019.61 1019.56 1019.89 1020.22 1020.36 1020.67 1020.71 1020.78 1020.98 1021.30 1021.54 1021.64 1021.73 1021.83 1021.91 1022.08 1022.17 1022.17 1022.14 1022.12 1022.05 1021.95 1021.85 1021.74
1015.11 1015.45 1016.03 1016.42 1016.75 1017.01 1017.35 1017.70 1018.24 1018.73 1019.08 1019.26 1019.49 1019.31 1019.48 1019.40 1019.45 1019.47 1019.49 1019.58 1019.55 1019.88 1020.08 1020.19 1020.23 1020.64 1020.81 1020.88 1020.94 1021.45 1021.54 1021.69 1021.73 1021.77 1021.91 1022.01 1022.06 1022.08 1022.04 1021.99 1021.93 1021.77 1021.54
1014.41 1014.81 1015.31 1015.57 1015.99 1016.48 1016.92 1017.42 1017.94 1018.37 1018.73 1019.02 1019.24 1019.39 1019.32 1019.37 1019.48 1019.39 1019.25 1019.37 1019.51 1019.69 1019.92 1019.90 1020.27 1020.33 1020.53 1020.68 1020.78 1021.47 1021.31 1021.59 1021.76 1021.88 1021.81 1021.77 1021.73 1021.72 1021.69 1021.61 1021.59 1021.58 1021.51
1013.89 1014.25 1014.67 1015.09 1015.48 1015.90 1016.31 1016.89 1017.32 1017.89 1018.32 1018.70 1018.94 1019.19 1019.16 1019.21 1019.38 1019.47 1019.57 1019.48 1019.28 1019.16 1019.30 1019.77 1019.88 1020.35 1020.31 1020.47 1020.74 1020.87 1020.97 1021.19 1021.54 1021.49 1021.51 1021.57 1021.45 1021.38 1021.41 1021.40 1021.35 1021.24 1021.13
1013.42 1013.71 1014.19 1014.50 1014.87 1015.37 1015.91 1016.33 1016.74 1017.29 1017.79 1018.13 1018.44 1018.85 1019.04 1019.06 1019.32 1019.43 1019.50 1019.50 1019.60 1019.39 1019.27 1019.50 1019.78 1020.14 1020.30 1020.23 1020.34 1020.60 1020.66 1021.02 1021.01 1021.06 1020.98 1020.96 1020.97 1021.06 1021.02 1020.91 1020.74 1020.74 1020.83
1012.51 1013.00 1013.40 1013.85 1014.20 1014.67 1015.21 1015.84 1016.07 1016.55 1017.08 1017.55 1017.96 1018.35 1018.66 1018.97 1018.98 1019.12 1019.32 1019.39 1019.38 1019.61 1019.39 1019.56 1019.86 1020.02 1020.23 1020.19 1020.12 1020.22 1020.25 1020.29 1020.26 1020.81 1021.00 1020.95 1020.96 1020.85 1020.72 1020.68 1020.69 1020.75 1020.66
1011.54 1012.05 1012.55 1013.07 1013.57 1013.97 1014.42 1014.96 1015.51 1015.84 1016.33 1016.79 1017.24 1017.69 1018.06 1018.40 1018.67 1018.74 1018.90 1019.04 1019.14 1019.42 1019.28 1019.39 1019.49 1019.60 1019.81 1019.74 1019.83 1019.98 1019.81 1019.67 1019.72 1019.69 1020.30 1020.43 1020.30 1020.32 1020.51 1020.54 1020.41 1020.51 1020.50
1010.43 1011.10 1011.80 1012.24 1012.67 1013.10 1013.55 1014.01 1014.45 1015.00 1015.56 1016.02 1016.45 1016.74 1016.97 1017.44 1017.83 1018.03 1018.24 1018.35 1018.67 1019.00 1019.14 1018.86 1018.70 1019.08 1019.11 1019.26 1019.36 1019.68 1019.65 1019.72 1019.73 1019.75 1019.83 1019.92 1020.10 1020.34 1020.16 1020.13 1020.29 1020.04 1019.95
1009.19 1009.76 1010.48 1011.08 1011.56 1012.04 1012.50 1013.00 1013.58 1014.03 1014.58 1015.05 1015.45 1015.84 1016.18 1016.51 1016.77 1017.43 1017.86 1018.08 1018.28 1018.35 1018.70 1018.76 1018.64 1018.64 1018.82 1019.26 1019.39 1019.14 1018.94 1019.00 1019.00 1018.92 1019.16 1019.28 1019.40 1019.59 1019.77 1019.85 1019.75 1019.71 1019.65
1007.91 1008.35 1009.07 1009.70 1010.22 1010.74 1011.16 1011.80 1012.30 1012.76 1013.32 1013.85 1014.42 1014.88 1015.35 1015.60 1015.96 1016.36 1016.97 1017.61 1017.93 1018.16 1018.12 1018.17 1018.17 1018.33 1018.43 1018.84 1018.64 1018.30 1018.54 1018.62 1019.07 1019.41 1018.76 1018.37 1018.55 1018.53 1018.72 1019.21 1018.99 1018.85 1019.01
1006.67 1007.39 1007.77 1008.22 1008.83 1009.08 1009.55 1010.43 1011.12 1011.65 1012.20 1012.62 1013.11 1013.90 1014.68 1015.37 1015.58 1015.74 1016.70 1016.74 1016.86 1017.03 1017.11 1017.18 1017.39 1017.55 1018.20 1018.42 1018.64 1018.38 1018.78 1018.65 1018.64 1018.94 1018.59 1018.31 1018.34 1018.14 1017.88 1017.94 1018.19 1018.51 1018.50
1005.54 1005.94 1006.44 1006.92 1007.17 1007.74 1008.32 1009.20 1010.01 1010.50 1010.94 1011.39 1011.98 1012.74 1013.56 1014.23 1014.77 1015.41 1015.84 1016.00 1015.91 1016.33 1016.56 1016.81 1016.96 1017.20 1017.45 1017.84 1018.21 1018.59 1018.62 1018.81 1018.33 1018.29 1018.73 1017.84 1017.71 1017.87 1017.55 1017.26 1017.89 1018.15 1018.10
1003.91 1004.50 1004.85 1005.27 1005.96 1006.25 1007.06 1008.03 1008.76 1009.34 1009.58 1010.10 1010.70 1011.59 1012.48 1013.32 1014.02 1014.47 1015.20 1015.44 1015.87 1015.83 1016.28 1016.70 1016.23 1016.34 1016.78 1017.31 1017.61 1017.90 1018.22 1018.51 1018.59 1018.56 1018.47 1017.93 1017.53 1017.50 1017.35 1017.15 1017.53 1017.66 1017.66
1003.04 1003.12 1003.63 1004.25 1004.44 1004.66 1005.56 1006.35 1007.51 1007.91 1007.92 1008.67 1009.57 1010.39 1011.11 1011.87 1012.49 1013.59 1014.83 1015.25 1015.69 1015.45 1015.39 1015.76 1016.09 1016.53 1017.10 1017.13 1017.30 1017.85 1018.05 1018.35 1018.25 1017.81 1018.02 1017.78 1017.17 1017.46 1017.43 1017.29 1017.07 1017.18 1017.29
1001.67 1002.48 1002.93 1003.13 1003.60 1004.09 1004.56 1005.49 1006.28 1006.36 1006.23 1006.56 1007.79 1008.73 1009.71 1010.48 1011.62 1012.39 1012.69 1014.43 1014.78 1014.89 1015.68 1016.20 1016.46 1016.72 1017.05 1017.25 1017.46 1017.44 1017.25 1017.38 1017.24 1017.30 1017.67 1017.80 1017.11 1017.33 1016.91 1016.84 1017.15 1016.88 1016.49
Wind_Speed
3 3 2 2 2 2 2 1 1 1 1 1 2 2 2 2 3 3 3 5 8 6 7 8 7 8 7 7 7 7 7 5 5 4 4 5 5 5 4 4 1 1 2
3 3 3 2 3 3 2 2 2 1 1 2 1 2 1 1 2 3 4 5 5 7 6 7 8 8 8 8 7 8 8 7 6 6 6 6 7 6 6 5 4 3 4
5 4 3 3 3 3 3 3 1 2 2 3 3 1 2 2 2 4 4 3 6 7 7 6 6 8 8 8 8 8 9 9 9 9 10 8 7 7 7 7 6 6 5
7 5 4 4 3 3 3 2 2 2 4 1 1 3 1 3 3 3 2 2 3 3 7 7 7 7 7 8 8 8 8 10 9 10 9 8 8 9 9 9 8 7 7
8 7 5 4 3 4 3 2 1 2 1 3 2 2 2 1 2 1 2 4 3 4 4 6 6 7 7 6 6 8 7 9 10 11 11 9 9 8 9 9 9 8 8
10 8 5 4 4 4 2 1 2 2 2 2 2 3 3 2 2 3 4 3 2 2 3 4 5 6 5 3 1 4 7 7 8 9 10 9 9 9 10 10 10 10 11
9 8 4 6 5 5 3 4 2 2 1 1 2 3 3 3 5 4 3 4 5 5 6 3 1 1 2 3 3 0 3 6 5 5 7 7 8 8 9 12 11 12 11
8 8 6 6 6 5 4 5 4 3 1 1 1 1 3 4 3 4 3 3 4 4 5 5 4 4 3 2 7 6 6 5 3 3 4 4 3 2 3 6 8 8 8
8 9 8 7 6 5 4 5 5 5 3 2 0 2 3 2 3 2 3 2 2 2 3 4 5 5 5 4 2 5 5 5 5 5 5 5 5 5 5 5 3 3 4
10 9 9 8 8 5 5 5 4 4 3 4 3 1 2 2 3 4 3 3 3 3 2 2 4 4 4 4 4 5 4 4 5 6 6 5 5 5 5 5 5 5 4
11 10 9 9 8 7 6 6 6 5 4 2 4 4 2 2 1 3 4 5 4 4 3 3 2 3 4 3 4 5 3 3 3 3 3 3 3 3 3 3 2 2 2
10 11 10 9 8 8 7 7 7 7 5 4 4 4 4 3 4 3 4 3 5 4 3 4 4 4 4 4 4 4 6 6 5 4 3 1 0 1 3 4 4 4 4
9 10 11 10 8 10 8 7 8 7 7 6 6 5 4 4 3 3 3 1 3 3 2 3 5 5 4 5 5 8 9 8 7 6 5 3 3 4 4 5 6 7 6
10 11 12 11 12 11 10 9 7 7 8 7 7 6 5 5 4 4 3 4 4 4 3 4 2 4 5 6 5 4 7 7 7 6 7 5 7 7 8 7 8 9 10
10 12 12 12 13 12 12 11 8 10 9 8 7 8 6 5 4 4 4 4 4 4 3 4 4 3 1 3 5 7 8 5 5 8 9 9 10 10 10 10 10 10 10
13 12 13 13 12 13 13 12 10 10 10 8 7 9 8 6 6 5 5 4 4 4 4 2 4 2 1 0 3 6 7 6 10 11 10 10 10 11 11 11 11 11 11
14 14 14 13 13 13 13 13 12 12 13 11 10 10 10 8 7 7 6 5 5 5 6 3 3 4 3 4 3 4 4 5 5 6 8 10 10 10 10 9 8 9 9
15 15 15 14 14 14 13 15 15 13 14 14 13 12 11 9 10 9 7 8 7 6 6 7 4 5 6 5 4 4 4 3 5 2 4 6 6 6 5 4 4 5 7
17 16 15 15 15 15 15 15 16 15 15 15 14 14 13 13 12 9 10 9 8 7 7 6 6 5 5 5 5 4 5 4 5 3 9 8 6 6 4 6 6 7 8
18 17 17 17 16 16 16 16 16 16 16 15 16 15 15 15 14 12 10 10 8 8 8 8 7 6 6 4 4 5 6 6 4 4 3 7 5 5 7 8 8 8 9
18 19 18 18 18 17 15 17 17 17 17 17 16 16 16 17 15 14 9 10 9 9 9 9 8 7 7 4 6 5 6 4 4 3 4 4 5 5 6 11 11 11 9
19 18 19 19 19 15 18 20 18 17 17 17 16 16 14 13 14 17 14 12 14 13 12 9 8 9 8 6 4 7 5 5 4 5 4 5 5 7 7 7 3 6 8
18 20 20 20 21 20 20 23 24 16 16 16 16 14 13 12 17 12 16 16 17 15 13 11 10 10 8 9 7 3 6 7 7 5 4 8 5 7 7 6 6 7 9
21 19 20 20 19 18 19 24 27 21 17 17 17 16 15 15 15 14 12 16 15 14 13 12 13 10 9 5 9 5 5 4 5 6 5 6 6 7 6 6 5 7 8
18 19 18 20 21 20 22 26 24 21 20 18 15 16 16 15 15 12 14 12 12 12 9 12 8 5 8 8 5 3 5 3 4 6 4 6 4 6 7 8 7 2 7
18 14 16 18 19 19 18 21 25 16 20 15 15 16 18 15 13 17 15 9 13 12 11 9 8 6 7 8 9 7 5 6 6 5 3 5 6 7 7 6 5 8 8
Wind_Direction
283 303 325 297 310 324 316 52 154 157 140 324 299 296 73 121 143 129 135 178 206 220 202 193 203 200 189 198 200 192 193 198 214 235 221 195 200 195 192 207 227 129 294
265 304 293 286 297 313 331 317 34 25 348 32 291 219 256 146 137 160 145 162 212 234 227 216 206 204 205 206 210 214 205 209 217 223 222 212 219 220 225 228 235 239 257
232 248 277 277 286 324 277 233 164 163 53 46 43 186 250 229 139 225 198 178 168 196 210 218 207 207 218 218 218 216 211 214 218 223 234 230 228 240 247 245 247 254 249
235 242 250 258 270 273 257 291 354 14 71 110 212 12 338 216 210 243 217 216 198 213 184 210 204 210 220 227 225 229 242 233 227 230 232 232 229 236 248 253 254 255 253
227 235 240 247 247 260 255 12 334 357 120 97 160 54 34 137 197 164 175 202 218 217 214 171 221 212 218 223 226 228 224 234 227 229 226 231 230 230 240 250 254 257 260
225 216 217 238 244 247 164 163 218 99 26 42 32 63 42 36 55 65 115 135 143 227 214 232 199 190 212 255 253 247 233 224 225 220 228 241 237 230 232 238 240 243 245
216 210 198 211 215 241 236 168 175 179 154 69 202 126 90 82 73 73 75 66 75 75 74 61 60 53 176 114 97 17 242 229 220 216 225 236 232 243 251 246 241 241 246
209 212 210 200 210 225 202 178 191 160 136 139 109 183 186 144 98 59 63 78 64 84 83 67 56 59 77 101 57 55 51 75 105 140 118 93 75 31 338 248 251 264 257
222 220 205 213 206 223 222 195 192 197 172 149 182 294 182 199 170 113 86 80 79 89 68 78 82 85 77 74 89 107 77 73 86 90 87 76 63 45 33 37 31 19 4
224 220 212 206 211 218 224 215 190 207 198 173 163 198 332 359 210 184 178 173 185 189 124 116 99 112 116 113 88 58 97 90 86 92 93 89 83 70 54 52 44 39 45
225 220 209 208 215 217 215 214 181 203 200 220 198 164 178 179 182 260 212 183 208 205 210 214 159 163 157 160 146 132 158 138 127 115 101 83 57 33 28 28 35 39 40
219 217 208 211 212 215 211 208 193 205 212 221 219 204 204 206 189 202 231 231 239 189 230 216 212 208 195 185 195 171 205 210 206 189 189 200 243 322 333 335 332 323 314
215 209 203 210 211 210 208 201 189 201 206 213 210 221 223 221 191 199 236 191 246 195 231 232 221 214 221 224 221 217 209 229 233 237 224 226 250 268 279 289 294 295 293
216 208 204 209 210 205 204 197 198 206 205 211 210 216 220 221 206 202 211 204 201 207 208 262 196 220 223 231 244 203 249 231 260 270 276 267 271 269 267 265 268 270 273
220 212 208 211 214 208 202 192 205 201 200 207 209 209 215 206 212 212 210 223 257 251 239 174 219 177 230 218 232 244 248 252 245 254 261 260 254 259 270 278 282 276 268
217 209 209 208 206 208 206 197 202 203 198 204 210 204 211 208 205 206 214 210 223 252 258 212 199 201 285 288 158 228 240 261 234 248 250 254 253 258 261 262 264 273 284
207 208 209 208 207 205 205 204 206 201 201 204 205 205 209 202 210 202 205 211 210 216 240 175 223 185 233 234 209 200 228 263 275 221 268 262 258 257 259 263 274 282 287
205 210 208 210 212 209 205 208 209 208 207 209 207 203 209 201 211 209 208 211 215 201 237 238 199 201 226 209 231 235 245 269 285 170 245 265 262 255 255 253 260 271 273
207 209 209 210 211 212 209 211 212 210 211 214 212 208 205 202 205 202 207 203 205 208 212 234 224 211 209 213 205 227 234 260 265 233 245 249 261 258 241 240 235 257 260
204 203 205 207 210 211 213 210 211 211 214 218 217 216 210 208 206 199 202 206 205 213 212 226 239 224 223 172 235 245 231 216 279 312 282 244 299 262 227 229 252 246 247
207 205 201 206 207 210 209 207 207 209 208 218 218 218 218 216 205 193 188 203 206 216 220 226 234 230 218 191 226 236 253 271 267 243 277 283 258 240 225 224 257 239 255
207 208 207 204 206 210 200 192 201 209 208 215 217 217 218 208 198 190 204 203 201 211 217 226 233 231 229 216 224 237 249 262 291 187 263 286 267 277 279 274 308 275 265
207 209 208 208 210 212 191 189 195 209 211 213 216 214 205 209 211 199 217 214 211 205 223 215 230 227 226 210 221 198 218 241 267 289 249 284 281 276 289 285 229 262 271
207 209 211 208 211 213 189 189 194 210 215 214 215 212 206 207 205 203 211 224 225 216 219 230 225 233 225 156 199 207 237 262 270 269 243 268 288 288 299 294 247 253 276
209 213 213 212 213 215 187 189 185 207 219 215 211 207 203 199 194 205 226 228 227 225 200 208 217 141 149 157 167 188 236 238 263 259 187 273 296 294 298 299 295 224 279
214 212 218 220 221 226 194 187 190 208 214 204 196 201 189 190 170 176 185 205 227 216 206 192 197 164 177 190 179 230 246 241 255 274 118 268 308 310 302 297 292 300 304